Weather in Kamyshovka

Russia / Jewish Autonomous Oblast     48°33′02″N   134°36′12″E
temp.,
°C
wind,
m/s
gust,
m/s
humid.,
%
clouds,
%
prec.,
mm/h
press.,
hPa
HPBL,
m
15 may, sat
sat1501:00+15sse41144100 0.0 1006216
04:00+15sse51549100 0.1 1004462
07:00+13sse81784100 1.1 1002798
10:00+12s71494100 7.9 999977
13:00+13ssw81495100 7.3 998663
16:00+17wsw81266100 9.3 9981596
19:00+15wsw7135898 1.0 999512
22:00+11sw49770 1.1 1001176
16 may, sun
sun1601:00+10sw615735 0.0 1001314
04:00+9sw716775 0.0 1001452
07:00+11wsw815705 0.0 1002726
10:00+15wsw814530 0.0 10011580
13:00+18w9124119 0.0 10012342
16:00+20w812335 0.0 10002817
19:00+18w611390 0.0 1000430
22:00+13wsw23525 0.0 100118
17 may, mon
mon1701:00+11ssw125291 0.0 100010
04:00+9s48765 0.0 1000111
07:00+11ssw59771 0.0 1000276
10:00+17wsw56510 0.0 1000763
13:00+22w48340 0.0 10001846
16:00+23wsw69295 0.0 9992720
19:00+21sw59415 0.0 999263
22:00+16sw34615 0.0 100043
18 may, tue
tue1801:00+14s45715 0.0 100065
04:00+12s410825 0.0 1000174
07:00+14ssw7147038 0.0 1000369
10:00+21ssw81447100 0.0 1000800
13:00+26ssw10143341 0.0 9971753
16:00+27sw9143571 0.0 9962221
19:00+24ssw9174341 0.0 995804
22:00+21ssw9184988 0.0 997603
19 may, wed
wed1901:00+16nnw5126425 0.0 1000421
04:00+13nw5115341 0.0 1002360
07:00+13wnw49575 0.0 1005272
10:00+18nw572892 0.0 10071162
13:00+20wnw472694 0.0 10072007
16:00+21wnw4627100 0.0 10072367
19:00+19sw354424 0.0 1007150
22:00+13ssw367127 0.0 100990